Year,Month,Day,Hour,Minute,Value (Times are PST for temperature in C)
2010,10,16,00,00,5.50
2010,10,16,00,01,5.50
2010,10,16,00,02,5.60
2010,10,16,00,03,5.60
2010,10,16,00,04,5.60
2010,10,16,00,05,5.60
2010,10,16,00,06,5.70
2010,10,16,00,07,5.70
2010,10,16,00,08,5.70
2010,10,16,00,09,5.70
2010,10,16,00,10,5.60
2010,10,16,00,11,5.60
2010,10,16,00,12,5.60
2010,10,16,00,13,5.60
2010,10,16,00,14,5.60
2010,10,16,00,15,5.60
2010,10,16,00,16,5.50
2010,10,16,00,17,5.60
2010,10,16,00,18,5.60
2010,10,16,00,19,5.60
2010,10,16,00,20,5.60
2010,10,16,00,21,5.60
2010,10,16,00,22,5.60
2010,10,16,00,23,5.60
2010,10,16,00,24,5.60
2010,10,16,00,25,5.60
2010,10,16,00,26,5.60
2010,10,16,00,27,5.60
2010,10,16,00,28,5.60
2010,10,16,00,29,5.60
2010,10,16,00,30,5.60
2010,10,16,00,31,5.60
2010,10,16,00,32,5.60
2010,10,16,00,33,5.60
2010,10,16,00,34,5.60
2010,10,16,00,35,5.60
2010,10,16,00,36,5.50
2010,10,16,00,37,5.50
2010,10,16,00,38,5.50
2010,10,16,00,39,5.50
2010,10,16,00,40,5.50
2010,10,16,00,41,5.50
2010,10,16,00,42,5.50
2010,10,16,00,43,5.40
2010,10,16,00,44,5.40
2010,10,16,00,45,5.40
2010,10,16,00,46,5.40
2010,10,16,00,47,5.40
2010,10,16,00,48,5.40
2010,10,16,00,49,5.40
2010,10,16,00,50,5.40
2010,10,16,00,51,5.40
2010,10,16,00,52,5.40
2010,10,16,00,53,5.40
2010,10,16,00,54,5.40
2010,10,16,00,55,5.30
2010,10,16,00,56,5.30
2010,10,16,00,57,5.30
2010,10,16,00,58,5.30
2010,10,16,00,59,5.30
2010,10,16,01,00,5.30
2010,10,16,01,01,5.30
2010,10,16,01,02,5.30
2010,10,16,01,03,5.30
2010,10,16,01,04,5.40
2010,10,16,01,05,5.40
2010,10,16,01,06,5.40
2010,10,16,01,07,5.40
2010,10,16,01,08,5.50
2010,10,16,01,09,5.50
2010,10,16,01,10,5.50
2010,10,16,01,11,5.50
2010,10,16,01,12,5.60
2010,10,16,01,16,5.60
2010,10,16,01,17,5.60
2010,10,16,01,18,5.60
2010,10,16,01,19,5.60
2010,10,16,01,20,5.70
2010,10,16,01,21,5.70
2010,10,16,01,22,5.70
2010,10,16,01,23,5.70
2010,10,16,01,24,5.70
2010,10,16,01,25,5.70
2010,10,16,01,26,5.70
2010,10,16,01,27,5.80
2010,10,16,01,28,5.80
2010,10,16,01,29,5.80
2010,10,16,01,30,5.80
2010,10,16,01,31,5.80
2010,10,16,01,32,5.80
2010,10,16,01,33,5.80
2010,10,16,01,34,5.80
2010,10,16,01,35,5.80
2010,10,16,01,36,5.80
2010,10,16,01,37,5.80
2010,10,16,01,38,5.70
2010,10,16,01,39,5.70
2010,10,16,01,40,5.80
2010,10,16,01,41,5.80
2010,10,16,01,42,5.70
2010,10,16,01,43,5.70
2010,10,16,01,44,5.70
2010,10,16,01,45,5.70
2010,10,16,01,46,5.70
2010,10,16,01,47,5.70
2010,10,16,01,48,5.70
2010,10,16,01,49,5.70
2010,10,16,01,50,5.70
2010,10,16,01,51,5.70
2010,10,16,01,52,5.70
2010,10,16,01,53,5.70
2010,10,16,01,54,5.70
2010,10,16,01,55,5.70
2010,10,16,01,56,5.70
2010,10,16,01,57,5.70
2010,10,16,01,58,5.70
2010,10,16,01,59,5.70
2010,10,16,02,00,5.70
2010,10,16,02,01,5.70
2010,10,16,02,02,5.80
2010,10,16,02,03,5.80
2010,10,16,02,04,5.80
2010,10,16,02,05,5.80
2010,10,16,02,06,5.80
2010,10,16,02,07,5.90
2010,10,16,02,08,5.90
2010,10,16,02,09,5.90
2010,10,16,02,10,5.90
2010,10,16,02,11,5.90
2010,10,16,02,12,5.90
2010,10,16,02,13,5.90
2010,10,16,02,14,5.90
2010,10,16,02,15,5.90
2010,10,16,02,16,5.90
2010,10,16,02,17,5.90
2010,10,16,02,18,5.80
2010,10,16,02,19,5.80
2010,10,16,02,20,5.80
2010,10,16,02,21,5.80
2010,10,16,02,22,5.80
2010,10,16,02,23,5.80
2010,10,16,02,24,5.80
2010,10,16,02,25,5.80
2010,10,16,02,26,5.70
2010,10,16,02,27,5.70
2010,10,16,02,28,5.70
2010,10,16,02,29,5.70
2010,10,16,02,30,5.70
2010,10,16,02,31,5.70
2010,10,16,02,32,5.70
2010,10,16,02,33,5.70
2010,10,16,02,34,5.70
2010,10,16,02,35,5.70
2010,10,16,02,36,5.60
2010,10,16,02,37,5.60
2010,10,16,02,38,5.60
2010,10,16,02,39,5.60
2010,10,16,02,40,5.60
2010,10,16,02,41,5.50
2010,10,16,02,42,5.50
2010,10,16,02,43,5.50
2010,10,16,02,44,5.40
2010,10,16,02,45,5.40
2010,10,16,02,46,5.40
2010,10,16,02,47,5.40
2010,10,16,02,48,5.40
2010,10,16,02,49,5.40
2010,10,16,02,50,5.40
2010,10,16,02,51,5.30
2010,10,16,02,52,5.30
2010,10,16,02,53,5.30
2010,10,16,02,54,5.30
2010,10,16,02,55,5.30
2010,10,16,02,56,5.20
2010,10,16,02,57,5.20
2010,10,16,02,58,5.20
2010,10,16,02,59,5.20
2010,10,16,03,00,5.20
2010,10,16,03,01,5.20
2010,10,16,03,02,5.20
2010,10,16,03,03,5.10
2010,10,16,03,04,5.10
2010,10,16,03,05,5.10
2010,10,16,03,06,5.10
2010,10,16,03,07,5.10
2010,10,16,03,08,5.10
2010,10,16,03,09,5.00
2010,10,16,03,10,5.00
2010,10,16,03,11,5.00
2010,10,16,03,12,4.90
2010,10,16,03,13,4.90
2010,10,16,03,14,4.90
2010,10,16,03,15,4.90
2010,10,16,03,16,4.80
2010,10,16,03,17,4.80
2010,10,16,03,18,4.80
2010,10,16,03,19,4.80
2010,10,16,03,20,4.80
2010,10,16,03,21,4.80
2010,10,16,03,22,4.80
2010,10,16,03,23,4.80
2010,10,16,03,24,4.80
2010,10,16,03,25,4.80
2010,10,16,03,26,4.70
2010,10,16,03,27,4.70
2010,10,16,03,28,4.70
2010,10,16,03,29,4.70
2010,10,16,03,30,4.70
2010,10,16,03,31,4.70
2010,10,16,03,32,4.70
2010,10,16,03,33,4.70
2010,10,16,03,34,4.70
2010,10,16,03,35,4.70
2010,10,16,03,36,4.60
2010,10,16,03,37,4.60
2010,10,16,03,38,4.60
2010,10,16,03,39,4.60
2010,10,16,03,40,4.60
2010,10,16,03,41,4.60
2010,10,16,03,42,4.50
2010,10,16,03,43,4.50
2010,10,16,03,44,4.50
2010,10,16,03,45,4.50
2010,10,16,03,46,4.50
2010,10,16,03,47,4.50
2010,10,16,03,48,4.50
2010,10,16,03,49,4.50
2010,10,16,03,50,4.50
2010,10,16,03,51,4.50
2010,10,16,03,52,4.50
2010,10,16,03,53,4.50
2010,10,16,03,54,4.50
2010,10,16,03,55,4.50
2010,10,16,03,56,4.50
2010,10,16,03,57,4.50
2010,10,16,03,58,4.50
2010,10,16,03,59,4.50
2010,10,16,04,00,4.50
2010,10,16,04,01,4.50
2010,10,16,04,02,4.50
2010,10,16,04,03,4.50
2010,10,16,04,04,4.50
2010,10,16,04,05,4.50
2010,10,16,04,06,4.50
2010,10,16,04,07,4.50
2010,10,16,04,08,4.40
2010,10,16,04,09,4.40
2010,10,16,04,10,4.40
2010,10,16,04,11,4.40
2010,10,16,04,12,4.40
2010,10,16,04,13,4.40
2010,10,16,04,14,4.40
2010,10,16,04,15,4.40
2010,10,16,04,16,4.40
2010,10,16,04,17,4.40
2010,10,16,04,18,4.40
2010,10,16,04,19,4.40
2010,10,16,04,20,4.40
2010,10,16,04,21,4.40
2010,10,16,04,22,4.30
2010,10,16,04,23,4.30
2010,10,16,04,24,4.30
2010,10,16,04,25,4.30
2010,10,16,04,26,4.30
2010,10,16,04,27,4.30
2010,10,16,04,28,4.30
2010,10,16,04,29,4.30
2010,10,16,04,30,4.30
2010,10,16,04,31,4.30
2010,10,16,04,32,4.30
2010,10,16,04,33,4.30
2010,10,16,04,34,4.30
2010,10,16,04,35,4.30
2010,10,16,04,36,4.30
2010,10,16,04,37,4.30
2010,10,16,04,38,4.30
2010,10,16,04,39,4.30
2010,10,16,04,40,4.30
2010,10,16,04,41,4.30
2010,10,16,04,42,4.30
2010,10,16,04,43,4.30
2010,10,16,04,44,4.30
2010,10,16,04,45,4.30
2010,10,16,04,46,4.30
2010,10,16,04,47,4.40
2010,10,16,04,48,4.40
2010,10,16,04,49,4.40
2010,10,16,04,50,4.40
2010,10,16,04,51,4.40
2010,10,16,04,52,4.40
2010,10,16,04,53,4.40
2010,10,16,04,54,4.30
2010,10,16,04,55,4.30
2010,10,16,04,56,4.30
2010,10,16,04,57,4.30
2010,10,16,04,58,4.30
2010,10,16,04,59,4.30
2010,10,16,05,00,4.30
2010,10,16,05,01,4.30
2010,10,16,05,02,4.30
2010,10,16,05,03,4.30
2010,10,16,05,04,4.30
2010,10,16,05,05,4.40
2010,10,16,05,06,4.40
2010,10,16,05,07,4.40
2010,10,16,05,08,4.40
2010,10,16,05,09,4.40
2010,10,16,05,10,4.40
2010,10,16,05,11,4.50
2010,10,16,05,12,4.50
2010,10,16,05,13,4.60
2010,10,16,05,14,4.50
2010,10,16,05,15,4.60
2010,10,16,05,16,4.60
2010,10,16,05,17,4.60
2010,10,16,05,18,4.60
2010,10,16,05,19,4.60
2010,10,16,05,20,4.60
2010,10,16,05,21,4.60
2010,10,16,05,22,4.60
2010,10,16,05,23,4.60
2010,10,16,05,24,4.60
2010,10,16,05,25,4.60
2010,10,16,05,26,4.60
2010,10,16,05,27,4.60
2010,10,16,05,28,4.60
2010,10,16,05,29,4.60
2010,10,16,05,30,4.60
2010,10,16,05,31,4.60
2010,10,16,05,32,4.60
2010,10,16,05,33,4.60
2010,10,16,05,34,4.60
2010,10,16,05,35,4.60
2010,10,16,05,36,4.60
2010,10,16,05,37,4.60
2010,10,16,05,38,4.60
2010,10,16,05,39,4.60
2010,10,16,05,40,4.60
2010,10,16,05,41,4.60
2010,10,16,05,42,4.60
2010,10,16,05,43,4.60
2010,10,16,05,44,4.60
2010,10,16,05,45,4.60
2010,10,16,05,46,4.50
2010,10,16,05,47,4.50
2010,10,16,05,48,4.50
2010,10,16,05,49,4.40
2010,10,16,05,50,4.40
2010,10,16,05,51,4.40
2010,10,16,05,52,4.40
2010,10,16,05,53,4.30
2010,10,16,05,54,4.30
2010,10,16,05,55,4.30
2010,10,16,05,56,4.20
2010,10,16,05,57,4.20
2010,10,16,05,58,4.20
2010,10,16,05,59,4.20
2010,10,16,06,00,4.20
2010,10,16,06,01,4.10
2010,10,16,06,02,4.10
2010,10,16,06,03,4.10
2010,10,16,06,04,4.10
2010,10,16,06,05,4.10
2010,10,16,06,06,4.10
2010,10,16,06,07,4.10
2010,10,16,06,08,4.10
2010,10,16,06,09,4.10
2010,10,16,06,10,4.10
2010,10,16,06,11,4.10
2010,10,16,06,12,4.10
2010,10,16,09,19,7.70
2010,10,16,09,20,7.70
2010,10,16,09,21,7.70
2010,10,16,09,22,7.70
2010,10,16,09,23,7.70
2010,10,16,09,24,7.70
2010,10,16,09,25,7.70
2010,10,16,09,26,7.70
2010,10,16,09,27,7.80
2010,10,16,09,28,7.80
2010,10,16,09,29,7.80
2010,10,16,09,30,7.80
2010,10,16,09,31,7.90
2010,10,16,09,32,7.90
2010,10,16,09,33,8.00
2010,10,16,09,34,8.00
2010,10,16,09,35,8.10
2010,10,16,09,36,8.20
2010,10,16,09,37,8.20
2010,10,16,09,38,8.30
2010,10,16,09,39,8.30
2010,10,16,09,40,8.30
2010,10,16,09,41,8.40
2010,10,16,09,42,8.40
2010,10,16,09,43,8.40
2010,10,16,09,44,8.50
2010,10,16,09,45,8.60
2010,10,16,09,46,8.60
2010,10,16,09,47,8.60
2010,10,16,09,48,8.60
2010,10,16,09,49,8.60
2010,10,16,09,50,8.70
2010,10,16,09,51,8.70
2010,10,16,09,52,8.70
2010,10,16,09,53,8.80
2010,10,16,09,54,8.80
2010,10,16,09,55,8.80
2010,10,16,09,56,8.80
2010,10,16,09,57,8.80
2010,10,16,09,58,8.90
2010,10,16,09,59,8.90
2010,10,16,10,00,8.90
2010,10,16,10,01,8.90
2010,10,16,10,02,8.90
2010,10,16,10,03,8.90
2010,10,16,10,04,8.90
2010,10,16,10,05,8.90
2010,10,16,10,06,8.90
2010,10,16,10,07,8.90
2010,10,16,10,08,9.00
2010,10,16,10,09,9.10
2010,10,16,10,10,9.10
2010,10,16,10,11,9.10
2010,10,16,10,12,9.10
2010,10,16,10,13,9.10
2010,10,16,10,14,9.20
2010,10,16,10,15,9.20
2010,10,16,10,16,9.20
2010,10,16,10,17,9.30
2010,10,16,10,18,9.30
2010,10,16,10,19,9.30
2010,10,16,10,20,9.30
2010,10,16,10,21,9.30
2010,10,16,10,22,9.30
2010,10,16,10,23,9.40
2010,10,16,10,24,9.40
2010,10,16,10,25,9.40
2010,10,16,10,26,9.40
2010,10,16,10,27,9.50
2010,10,16,10,28,9.60
2010,10,16,10,29,9.60
2010,10,16,10,30,9.60
2010,10,16,10,31,9.60
2010,10,16,10,32,9.60
2010,10,16,10,33,9.60
2010,10,16,10,34,9.60
2010,10,16,10,35,9.60
2010,10,16,10,36,9.60
2010,10,16,10,37,9.60
2010,10,16,10,38,9.60
2010,10,16,10,39,9.60
2010,10,16,10,40,9.60
2010,10,16,10,41,9.70
2010,10,16,10,42,9.70
2010,10,16,10,43,9.80
2010,10,16,10,44,9.80
2010,10,16,10,45,9.80
2010,10,16,10,46,9.80
2010,10,16,10,47,9.80
2010,10,16,10,48,9.80
2010,10,16,10,49,9.80
2010,10,16,10,50,9.80
2010,10,16,10,51,9.80
2010,10,16,10,52,9.80
2010,10,16,10,53,9.90
2010,10,16,10,54,9.90
2010,10,16,10,55,9.90
2010,10,16,10,56,9.90
2010,10,16,10,57,9.90
2010,10,16,10,58,10.00
2010,10,16,10,59,9.90
2010,10,16,11,00,9.90
2010,10,16,11,01,9.90
2010,10,16,11,02,9.90
2010,10,16,11,03,9.90
2010,10,16,11,04,9.90
2010,10,16,11,05,9.90
2010,10,16,11,06,10.00
2010,10,16,11,07,10.00
2010,10,16,11,08,10.10
2010,10,16,11,09,10.00
2010,10,16,11,10,10.00
2010,10,16,11,11,10.00
2010,10,16,11,12,10.00
2010,10,16,11,13,10.10
2010,10,16,11,14,10.10
2010,10,16,11,15,10.10
2010,10,16,11,16,10.10
2010,10,16,11,17,10.10
2010,10,16,11,18,10.10
2010,10,16,11,19,10.10
2010,10,16,11,20,10.10
2010,10,16,11,21,10.10
2010,10,16,11,22,10.20
2010,10,16,11,23,10.20
2010,10,16,11,24,10.20
2010,10,16,11,25,10.20
2010,10,16,11,26,10.20
2010,10,16,11,27,10.30
2010,10,16,11,28,10.30
2010,10,16,11,29,10.30
2010,10,16,11,30,10.40
2010,10,16,11,31,10.40
2010,10,16,11,32,10.40
2010,10,16,11,33,10.40
2010,10,16,11,34,10.40
2010,10,16,11,35,10.50
2010,10,16,11,36,10.50
2010,10,16,11,37,10.50
2010,10,16,11,38,10.60
2010,10,16,11,39,10.60
2010,10,16,11,40,10.60
2010,10,16,11,41,10.60
2010,10,16,11,42,10.60
2010,10,16,11,43,10.70
2010,10,16,11,44,10.70
2010,10,16,11,45,10.70
2010,10,16,11,46,10.80
2010,10,16,11,47,10.80
2010,10,16,11,48,10.80
2010,10,16,11,49,10.80
2010,10,16,11,50,10.80
2010,10,16,11,51,10.80
2010,10,16,11,52,10.80
2010,10,16,11,53,10.80
2010,10,16,11,54,10.80
2010,10,16,11,55,10.80
2010,10,16,11,56,10.80
2010,10,16,11,57,10.80
2010,10,16,11,58,10.80
2010,10,16,11,59,10.90
2010,10,16,12,00,10.90
2010,10,16,12,01,10.90
2010,10,16,12,02,10.90
2010,10,16,12,03,11.00
2010,10,16,12,04,11.00
2010,10,16,12,05,11.00
2010,10,16,12,06,11.10
2010,10,16,12,07,11.10
2010,10,16,12,08,11.10
2010,10,16,12,09,11.10
2010,10,16,12,10,11.20
2010,10,16,12,11,11.20
2010,10,16,12,12,11.20
2010,10,16,12,13,11.20
2010,10,16,12,14,11.20
2010,10,16,12,15,11.20
2010,10,16,12,16,11.30
2010,10,16,12,17,11.30
2010,10,16,12,18,11.30
2010,10,16,12,19,11.30
2010,10,16,12,20,11.30
2010,10,16,12,21,11.40
2010,10,16,12,22,11.40
2010,10,16,12,23,11.50
2010,10,16,12,24,11.60
2010,10,16,12,25,11.60
2010,10,16,12,26,11.70
2010,10,16,12,27,11.70
2010,10,16,12,28,11.70
2010,10,16,12,29,11.70
2010,10,16,12,30,11.70
2010,10,16,12,31,11.70
2010,10,16,12,32,11.80
2010,10,16,12,33,11.80
2010,10,16,12,34,11.80
2010,10,16,12,35,11.90
2010,10,16,12,36,11.90
2010,10,16,12,37,11.90
2010,10,16,12,38,11.90
2010,10,16,12,39,11.90
2010,10,16,12,40,11.90
2010,10,16,12,41,11.90
2010,10,16,12,42,11.90
2010,10,16,12,43,11.90
2010,10,16,12,44,11.80
2010,10,16,12,45,11.70
2010,10,16,12,46,11.70
2010,10,16,12,47,11.60
2010,10,16,12,48,11.60
2010,10,16,12,49,11.60
2010,10,16,12,50,11.60
2010,10,16,12,51,11.60
2010,10,16,12,52,11.60
2010,10,16,12,53,11.60
2010,10,16,12,54,11.60
2010,10,16,12,55,11.70
2010,10,16,12,56,11.70
2010,10,16,12,57,11.70
2010,10,16,12,58,11.80
2010,10,16,12,59,11.80
2010,10,16,13,00,11.80
2010,10,16,13,01,11.80
2010,10,16,13,02,11.80
2010,10,16,13,03,11.80
2010,10,16,13,04,11.70
2010,10,16,13,05,11.70
2010,10,16,13,06,11.70
2010,10,16,13,07,11.70
2010,10,16,13,08,11.70
2010,10,16,13,09,11.70
2010,10,16,13,10,11.70
2010,10,16,13,11,11.70
2010,10,16,13,12,11.70
2010,10,16,13,13,11.70
2010,10,16,13,14,11.70
2010,10,16,13,15,11.70
2010,10,16,13,16,11.70
2010,10,16,13,17,11.70
2010,10,16,13,18,11.70
2010,10,16,13,19,11.70
2010,10,16,13,20,11.60
2010,10,16,13,21,11.70
2010,10,16,13,22,11.70
2010,10,16,13,23,11.70
2010,10,16,13,24,11.70
2010,10,16,13,25,11.70
2010,10,16,13,26,11.80
2010,10,16,13,27,11.80
2010,10,16,13,28,11.90
2010,10,16,13,29,11.90
2010,10,16,13,30,12.00
2010,10,16,13,31,12.10
2010,10,16,13,32,12.10
2010,10,16,13,33,12.10
2010,10,16,13,34,12.10
2010,10,16,13,35,12.00
2010,10,16,13,36,12.00
2010,10,16,13,37,12.00
2010,10,16,13,38,12.00
2010,10,16,13,39,12.00
2010,10,16,13,40,12.00
2010,10,16,13,41,12.00
2010,10,16,13,42,12.00
2010,10,16,13,43,12.00
2010,10,16,13,44,12.10
2010,10,16,13,45,12.10
2010,10,16,13,46,12.10
2010,10,16,13,47,12.20
2010,10,16,13,48,12.20
2010,10,16,13,49,12.20
2010,10,16,13,50,12.20
2010,10,16,13,51,12.20
2010,10,16,13,52,12.20
2010,10,16,13,53,12.20
2010,10,16,13,54,12.20
2010,10,16,13,55,12.20
2010,10,16,13,56,12.20
2010,10,16,13,57,12.30
2010,10,16,13,58,12.30
2010,10,16,13,59,12.30
2010,10,16,14,00,12.30
2010,10,16,14,01,12.40
2010,10,16,14,02,12.40
2010,10,16,14,03,12.40
2010,10,16,14,04,12.40
2010,10,16,14,05,12.40
2010,10,16,14,06,12.40
2010,10,16,14,07,12.40
2010,10,16,14,08,12.30
2010,10,16,14,09,12.20
2010,10,16,14,10,12.10
2010,10,16,14,11,12.10
2010,10,16,14,12,12.10
2010,10,16,14,13,12.20
2010,10,16,14,14,12.20
2010,10,16,14,15,12.20
2010,10,16,14,16,12.30
2010,10,16,14,17,12.30
2010,10,16,14,18,12.30
2010,10,16,14,19,12.30
2010,10,16,14,20,12.30
2010,10,16,14,21,12.30
2010,10,16,14,22,12.40
2010,10,16,14,23,12.40
2010,10,16,14,24,12.40
2010,10,16,14,25,12.50
2010,10,16,14,26,12.50
2010,10,16,14,27,12.50
2010,10,16,14,28,12.60
2010,10,16,14,29,12.60
2010,10,16,14,30,12.60
2010,10,16,14,31,12.60
2010,10,16,14,32,12.60
2010,10,16,14,33,12.60
2010,10,16,14,34,12.60
2010,10,16,14,35,12.60
2010,10,16,14,36,12.60
2010,10,16,14,37,12.60
2010,10,16,14,38,12.60
2010,10,16,14,39,12.60
2010,10,16,14,40,12.60
2010,10,16,14,41,12.60
2010,10,16,14,42,12.60
2010,10,16,14,43,12.60
2010,10,16,14,44,12.60
2010,10,16,14,45,12.50
2010,10,16,14,46,12.50
2010,10,16,14,47,12.40
2010,10,16,14,48,12.40
2010,10,16,14,49,12.40
2010,10,16,14,50,12.40
2010,10,16,14,51,12.40
2010,10,16,14,52,12.40
2010,10,16,14,53,12.40
2010,10,16,14,54,12.50
2010,10,16,14,55,12.50
2010,10,16,14,56,12.50
2010,10,16,14,57,12.50
2010,10,16,14,58,12.50
2010,10,16,14,59,12.60
2010,10,16,15,00,12.60
2010,10,16,15,01,12.60
2010,10,16,15,02,12.60
2010,10,16,15,03,12.60
2010,10,16,15,04,12.60
2010,10,16,15,05,12.60
2010,10,16,15,06,12.60
2010,10,16,15,07,12.50
2010,10,16,15,08,12.50
2010,10,16,15,09,12.50
2010,10,16,15,10,12.40
2010,10,16,15,11,12.40
2010,10,16,15,12,12.40
2010,10,16,15,13,12.40
2010,10,16,15,14,12.40
2010,10,16,15,15,12.40
2010,10,16,15,16,12.40
2010,10,16,15,17,12.40
2010,10,16,15,18,12.30
2010,10,16,15,19,12.20
2010,10,16,15,20,12.10
2010,10,16,15,21,12.10
2010,10,16,15,22,12.00
2010,10,16,15,23,11.90
2010,10,16,15,24,11.90
2010,10,16,15,25,11.90
2010,10,16,15,26,11.90
2010,10,16,15,27,11.90
2010,10,16,15,28,11.90
2010,10,16,15,29,11.90
2010,10,16,15,30,11.90
2010,10,16,15,31,11.80
2010,10,16,15,32,11.70
2010,10,16,15,33,11.70
2010,10,16,15,34,11.70
2010,10,16,15,35,11.60
2010,10,16,15,36,11.60
2010,10,16,15,37,11.60
2010,10,16,15,38,11.60
2010,10,16,15,39,11.60
2010,10,16,15,40,11.50
2010,10,16,15,41,11.50
2010,10,16,15,42,11.50
2010,10,16,15,43,11.40
2010,10,16,15,44,11.40
2010,10,16,15,45,11.30
2010,10,16,15,46,11.30
2010,10,16,15,47,11.20
2010,10,16,15,48,11.10
2010,10,16,15,49,11.10
2010,10,16,15,50,11.00
2010,10,16,15,51,10.90
2010,10,16,15,52,10.90
2010,10,16,15,53,10.80
2010,10,16,15,54,10.80
2010,10,16,15,55,10.70
2010,10,16,15,56,10.70
2010,10,16,15,57,10.70
2010,10,16,15,58,10.60
2010,10,16,15,59,10.60
2010,10,16,16,00,10.60
2010,10,16,16,01,10.50
2010,10,16,16,02,10.50
2010,10,16,16,03,10.40
2010,10,16,16,04,10.40
2010,10,16,16,05,10.40
2010,10,16,16,06,10.40
2010,10,16,16,07,10.40
2010,10,16,16,08,10.40
2010,10,16,16,09,10.30
2010,10,16,16,10,10.30
2010,10,16,16,11,10.30
2010,10,16,16,12,10.30
2010,10,16,16,13,10.20
2010,10,16,16,14,10.20
2010,10,16,16,15,10.20
2010,10,16,16,16,10.20
2010,10,16,16,17,10.10
2010,10,16,16,18,10.10
2010,10,16,16,19,10.10
2010,10,16,16,20,10.10
2010,10,16,16,21,10.00
2010,10,16,16,22,10.00
2010,10,16,16,23,9.90
2010,10,16,16,24,9.90
2010,10,16,16,25,9.90
2010,10,16,16,26,9.80
2010,10,16,16,27,9.80
2010,10,16,16,28,9.80
2010,10,16,16,29,9.80
2010,10,16,16,30,9.80
2010,10,16,16,31,9.70
2010,10,16,16,32,9.70
2010,10,16,16,33,9.70
2010,10,16,16,34,9.70
2010,10,16,16,35,9.70
2010,10,16,16,36,9.70
2010,10,16,16,37,9.60
2010,10,16,16,38,9.60
2010,10,16,16,39,9.60
2010,10,16,16,40,9.60
2010,10,16,16,41,9.60
2010,10,16,16,42,9.60
2010,10,16,16,43,9.60
2010,10,16,16,44,9.60
2010,10,16,16,45,9.50
2010,10,16,16,46,9.50
2010,10,16,16,47,9.50
2010,10,16,16,48,9.50
2010,10,16,16,49,9.40
2010,10,16,16,50,9.40
2010,10,16,16,51,9.40
2010,10,16,16,52,9.40
2010,10,16,16,53,9.40
2010,10,16,16,54,9.30
2010,10,16,16,55,9.30
2010,10,16,16,56,9.30
2010,10,16,16,57,9.30
2010,10,16,16,58,9.30
2010,10,16,16,59,9.20
2010,10,16,17,00,9.20
2010,10,16,17,01,9.20
2010,10,16,17,02,9.20
2010,10,16,17,03,9.20
2010,10,16,17,04,9.10
2010,10,16,17,05,9.10
2010,10,16,17,06,9.10
2010,10,16,17,07,9.10
2010,10,16,17,08,9.10
2010,10,16,17,09,9.00
2010,10,16,17,10,9.00
2010,10,16,17,11,9.00
2010,10,16,17,12,8.90
2010,10,16,17,13,8.90
2010,10,16,17,14,8.90
2010,10,16,17,15,8.90
2010,10,16,17,16,8.90
2010,10,16,17,17,8.90
2010,10,16,17,18,8.80
2010,10,16,17,19,8.80
2010,10,16,17,20,8.80
2010,10,16,17,21,8.80
2010,10,16,17,22,8.80
2010,10,16,17,23,8.80
2010,10,16,17,24,8.70
2010,10,16,17,25,8.70
2010,10,16,17,26,8.70
2010,10,16,17,27,8.70
2010,10,16,17,28,8.70
2010,10,16,17,29,8.70
2010,10,16,17,30,8.70
2010,10,16,17,31,8.70
2010,10,16,17,32,8.70
2010,10,16,17,33,8.70
2010,10,16,17,34,8.70
2010,10,16,17,35,8.70
2010,10,16,17,36,8.60
2010,10,16,17,37,8.60
2010,10,16,17,38,8.60
2010,10,16,17,39,8.60
2010,10,16,17,40,8.60
2010,10,16,17,41,8.60
2010,10,16,17,42,8.60
2010,10,16,17,43,8.50
2010,10,16,17,44,8.50
2010,10,16,17,45,8.50
2010,10,16,17,46,8.50
2010,10,16,17,47,8.40
2010,10,16,17,48,8.40
2010,10,16,17,49,8.40
2010,10,16,17,50,8.40
2010,10,16,17,51,8.40
2010,10,16,17,52,8.30
2010,10,16,17,53,8.30
2010,10,16,17,54,8.30
2010,10,16,17,55,8.30
2010,10,16,17,56,8.30
2010,10,16,17,57,8.30
2010,10,16,17,58,8.30
2010,10,16,17,59,8.30
2010,10,16,18,00,8.20
2010,10,16,18,01,8.20
2010,10,16,18,02,8.20
2010,10,16,18,03,8.20
2010,10,16,18,04,8.10
2010,10,16,18,05,8.10
2010,10,16,18,06,8.10
2010,10,16,18,07,8.00
2010,10,16,18,08,8.00
2010,10,16,18,09,7.90
2010,10,16,18,10,7.90
2010,10,16,18,11,7.80
2010,10,16,18,12,7.80
2010,10,16,18,13,7.80
2010,10,16,18,14,7.70
2010,10,16,18,15,7.70
2010,10,16,18,16,7.70
2010,10,16,18,17,7.70
2010,10,16,18,18,7.70
2010,10,16,18,19,7.70
2010,10,16,18,20,7.70
2010,10,16,18,21,7.70
2010,10,16,18,22,7.70
2010,10,16,18,23,7.70
2010,10,16,18,24,7.70
2010,10,16,18,25,7.70
2010,10,16,18,26,7.70
2010,10,16,18,27,7.70
2010,10,16,18,28,7.70
